CT1ETE Weather Reports


time (UTC)temp
C
wind
direction
speed
KPH
gust
KPH
rain 1hr
cm
rain 24hr
cm
rain mn
cm
humidity
%
barometer
mb
20260509175547 12 134 9.7 17.7 0.23 1.57 1.57 83 1005.8
20260509174755 12 124 11.3 19.3 0.30 1.55 1.55 84 1005.7
20260509172543 12 144 9.7 19.3 0.36 1.47 1.47 81 1005.5
20260509171043 12 122 11.3 17.7 0.41 1.42 1.42 81 1005.5
20260509165543 12 128 12.9 19.3 0.33 1.35 1.35 84 1005.2
20260509164041 12 140 6.4 17.7 0.23 1.24 1.24 84 1005.2
20260509163239 12 114 4.8 16.1 0.13 1.12 1.14 85 1005.1
20260509161040 13 131 8.0 17.7 0.05 1.02 1.02 85 1004.7
20260509155537 13 78 3.2 9.7 0.05 1.02 1.02 82 1004.7
20260509154036 13 168 3.2 8.0 0.10 0.99 0.99 84 1004.9
20260509152537 12 168 1.6 8.0 0.30 0.99 0.99 85 1004.8
20260509151730 12 147 4.8 11.3 0.71 0.99 0.99 85 1004.8
20260509145537 12 206 0.0 3.2 0.81 0.99 0.99 86 1004.6
20260509144733 12 206 1.6 9.7 0.74 0.89 0.89 85 1004.5
20260509142536 12 226 20.9 32.2 0.53 0.71 0.71 85 1004.1
20260509141036 14 196 17.7 29.0 0.10 0.25 0.28 82 1003.7
20260509140229 16 165 11.3 25.7 0.00 0.15 0.15 70 1003.5
20260509134036 17 135 16.1 25.7 0.00 0.15 0.15 68 1003.2
20260509133235 16 74 12.9 24.1 0.00 0.15 0.15 71 1003.3
20260509131036 16 118 16.1 29.0 0.00 0.15 0.15 71 1003.5
20260509130229 16 118 12.9 22.5 0.00 0.15 0.15 72 1003.4
20260509124037 15 156 8.0 19.3 0.00 0.15 0.15 77 1003.5
20260509122537 15 105 8.0 17.7 0.00 0.15 0.15 78 1003.8
20260509121037 14 92 8.0 16.1 0.03 0.15 0.15 79 1003.8
20260509115536 14 102 4.8 11.3 0.05 0.15 0.15 82 1003.8
20260509114037 13 149 6.4 16.1 0.05 0.15 0.15 83 1004.0
20260509113945 13 148 8.0 20.9 0.08 0.20 0.15 83 1004.0
20260509111734 13 135 9.7 20.9 0.05 0.18 0.15 82 1003.9
20260509105530 13 105 16.1 33.8 0.05 0.15 0.13 79 1004.0
20260509104030 13 76 17.7 33.8 0.03 0.15 0.10 76 1003.8
20260509102530 14 81 16.1 27.4 0.00 0.13 0.08 76 1003.9
20260509101031 14 92 12.9 22.5 0.00 0.13 0.08 74 1003.9
20260509095530 15 131 11.3 22.5 0.00 0.13 0.08 73 1003.9
20260509094029 15 65 8.0 19.3 0.00 0.13 0.08 71 1003.8
20260509092525 15 119 16.1 29.0 0.00 0.13 0.08 70 1003.8
20260509091022 15 113 14.5 27.4 0.00 0.13 0.08 70 1003.8
20260509085522 15 101 17.7 30.6 0.00 0.13 0.08 70 1003.7
20260509084022 15 85 14.5 30.6 0.00 0.13 0.08 73 1003.6
20260509082522 15 84 17.7 25.7 0.00 0.13 0.08 73 1003.7
20260509081024 14 80 17.7 29.0 0.00 0.13 0.08 72 1003.7
20260509075522 15 84 17.7 32.2 0.00 0.13 0.08 71 1003.8
20260509074022 14 46 17.7 27.4 0.00 0.13 0.08 73 1003.8
20260509072522 14 93 14.5 22.5 0.00 0.13 0.08 72 1003.9
20260509071022 15 119 17.7 25.7 0.00 0.13 0.08 70 1004.0
20260509070229 15 95 14.5 22.5 0.00 0.13 0.08 70 1004.0
20260509064021 14 100 6.4 16.1 0.00 0.13 0.08 72 1003.9
20260509062522 13 127 8.0 16.1 0.00 0.13 0.08 75 1004.0
20260509061022 12 120 8.0 12.9 0.00 0.13 0.08 76 1004.0
20260509055520 12 105 8.0 12.9 0.00 0.15 0.08 76 1003.9
20260509054020 12 135 9.7 17.7 0.00 0.15 0.08 77 1003.9
20260509053214 12 118 12.9 17.7 0.00 0.15 0.08 75 1004.1
20260509051020 12 115 12.9 22.5 0.00 0.18 0.08 76 1004.1
20260509045520 12 115 11.3 14.5 0.00 0.18 0.08 78 1004.0
20260509044019 12 130 9.7 16.1 0.00 0.18 0.08 79 1004.1
20260509042520 12 120 11.3 16.1 0.00 0.18 0.08 78 1004.3
20260509041726 12 112 4.8 9.7 0.00 0.18 0.08 79 1004.4
20260509035518 12 112 6.4 11.3 0.00 0.18 0.08 79 1004.5
20260509034017 12 133 6.4 11.3 0.00 0.18 0.08 78 1004.5
20260509032518 12 136 6.4 11.3 0.00 0.18 0.08 78 1004.5
20260509031710 12 150 6.4 12.9 0.00 0.18 0.08 79 1004.6
20260509025514 12 151 4.8 11.3 0.00 0.18 0.08 79 1004.8
20260509024013 12 146 6.4 11.3 0.00 0.18 0.08 80 1004.9
20260509022514 12 132 8.0 14.5 0.00 0.18 0.08 80 1004.8
20260509021013 12 128 11.3 14.5 0.00 0.18 0.08 81 1004.9
20260509015514 12 136 6.4 11.3 0.03 0.18 0.08 82 1005.1
20260509014013 12 128 11.3 20.9 0.05 0.18 0.08 82 1005.0
20260509012513 12 109 6.4 14.5 0.08 0.18 0.08 84 1004.8
20260509011013 12 71 9.7 16.1 0.08 0.18 0.08 83 1005.0
20260509005514 12 146 9.7 17.7 0.05 0.15 0.05 80 1005.9
20260509004013 13 156 4.8 16.1 0.03 0.13 0.03 78 1005.9
20260509002512 14 232 6.4 17.7 0.00 0.10 0.00 73 1005.7
20260509001704 14 162 12.9 25.7 0.00 0.10 0.00 68 1005.9
20260508235511 14 115 12.9 24.1 0.00 0.10 0.00 67 1005.2
20260508234011 14 41 12.9 29.0 0.00 0.10 0.00 68 1005.3
20260508232512 14 110 14.5 24.1 0.00 0.10 0.00 68 1005.4
20260508231009 14 110 9.7 20.9 0.00 0.10 0.00 70 1005.5
20260508225510 14 103 12.9 24.1 0.00 0.10 0.10 69 1005.5
20260508224009 14 102 14.5 27.4 0.00 0.10 0.10 68 1005.7
20260508222504 14 75 17.7 30.6 0.00 0.10 0.10 68 1005.7
20260508221003 14 82 19.3 29.0 0.00 0.10 0.10 69 1005.9
20260508215503 14 60 20.9 33.8 0.00 0.10 0.10 69 1005.9
20260508214004 13 89 22.5 32.2 0.00 0.10 0.10 70 1006.3
20260508212504 13 84 24.1 32.2 0.00 0.10 0.10 69 1006.4
20260508211702 13 82 20.9 30.6 0.00 0.10 0.10 69 1006.5
20260508205459 13 71 22.5 32.2 0.00 0.10 0.10 69 1006.7
20260508203959 13 94 22.5 33.8 0.00 0.10 0.10 70 1006.7
20260508202459 13 81 19.3 27.4 0.00 0.10 0.10 71 1006.8
20260508201659 14 68 17.7 25.7 0.00 0.10 0.10 71 1006.8
20260508200156 14 108 9.7 24.1 0.00 0.10 0.10 71 1006.7
20260508193959 14 88 12.9 22.5 0.00 0.10 0.10 71 1006.8
20260508192459 15 90 6.4 12.9 0.00 0.10 0.10 69 1006.7
20260508190959 15 83 4.8 9.7 0.00 0.10 0.10 68 1006.9
20260508185457 15 83 4.8 11.3 0.00 0.10 0.10 65 1007.0
20260508183955 16 74 3.2 12.9 0.00 0.10 0.10 63 1007.1
20260508183850 16 65 3.2 6.4 0.00 0.10 0.10 62 1007.2
20260508181652 16 65 3.2 4.8 0.00 0.10 0.10 60 1007.3